Regional Weather Roundup
Issued by NWS

Home | Current Version | Previous Version | Text Only | Print | Product List | Glossary Off
Versions: 1 2 3 4 5 6 7 8 9 10 11 12 13 14 15 16 17 18 19 20 21 22 23 24 25 26 27

000
ASUS45 KBOU 172306
RWRCO

WEATHER ROUNDUP FOR COLORADO
NATIONAL WEATHER SERVICE DENVER/BOULDER CO
500 PM MDT THU APR 17 2014

NOTE: "FAIR" INDICATES FEW OR NO CLOUDS BELOW 12000 FEET WITH NO
SIGNIFICANT WEATHER AND/OR OBSTRUCTIONS TO VISIBILITY.

COZ001>005-013-030-031-180000-
...NORTHWEST COLORADO...

CITY           SKY/WX    TMP DP  RH WIND       PRES   REMARKS
CRAIG          MOSUNNY   62  23  22 W13       30.02F
HAYDEN         MOSUNNY   59  21  23 W10       30.06S
MEEKER         MOSUNNY   63  20  19 SW13G22   30.02F
MOUNT WERNER   MOSUNNY   41  10  28 SW9G17    30.20S
STEAMBOAT SPGS MOSUNNY   55  14  19 SE5       30.05S
WALDEN         SUNNY     50  14  23 SW12      30.09S
$$

COZ006>008-011-180000-
...WEST CENTRAL VALLEYS...

CITY           SKY/WX    TMP DP  RH WIND       PRES   REMARKS
GRAND JUNCTION SUNNY     66  21  18 VRB6      30.01F
MONTROSE       SUNNY     67  19  16 W12G18    30.05F
EAGLE          MOSUNNY   61  21  21 SW16      30.06F
RIFLE          SUNNY     64  17  16 W22       30.02S
DELTA          SUNNY     69  21  16 CALM      30.02F
NUCLA            N/A     68  18  14 NW10      30.08F
$$

COZ017>023-064>068-180000-
...SOUTHWEST COLORADO...

CITY           SKY/WX    TMP DP  RH WIND       PRES   REMARKS
DURANGO        SUNNY     64  16  15 SW9       30.09F
CORTEZ         SUNNY     66  20  17 NW9       30.08F
PAGOSA SPRINGS SUNNY     60  13  16 S14G20    30.12F
TELLURIDE      SUNNY     54  19  26 W8        30.18S
WOLF CREEK PAS SUNNY     36  19  51 SW15G28   30.29S
$$

COZ009-010-012-014-032>034-037-058>063-180000-
...CENTRAL COLORADO...

CITY           SKY/WX    TMP DP  RH WIND       PRES   REMARKS
ASPEN          MOSUNNY   56  15  20 VRB7      30.09S
BUENA VISTA    SUNNY     57  13  17 W14G22    30.09S
COPPER MTN     MOSUNNY   37  14  38 SW12G20   30.24S
BERTHOUD PASS  FAIR      32  23  69 NW21      30.24R WCI  20
COTTONWOOD PAS SUNNY     52  12  20 NW5G18    30.17S
GUNNISON       SUNNY     57  18  21 W16G23    30.13S
KREMMLING      MOSUNNY   59  10  14 SW12G18   30.06F
LEADVILLE      SUNNY     42  14  32 SW7G18    30.15S
MONARCH PASS   SUNNY     36  14  41 W31G45    30.35R
SALIDA         SUNNY     62  10  13 SW12G23   30.15S
SUNLIGHT       MOSUNNY   45  21  39 CALM      30.23S
WILKERSON PASS SUNNY     37  27  65 SW6G17    30.23S
$$

COZ069>075-180000-
...SAN LUIS VALLEY/SANGRE DE CRISTO MOUNTAINS...

CITY           SKY/WX    TMP DP  RH WIND       PRES   REMARKS
ALAMOSA        SUNNY     57  33  40 SE8       30.11F
LA VETA PASS   SUNNY     45  21  39 SW6       30.21F
SAGUACHE       NOT AVBL
$$

COZ035-036-038>040-180000-
...NORTHERN COLORADO FRONT RANGE...

CITY           SKY/WX    TMP DP  RH WIND       PRES   REMARKS
DENVER INTL AP MOSUNNY   62  26  25 SE14      29.99F
DMNS CITY PARK   N/A     63  25  23 E10       29.98S
AURORA         MOSUNNY   61  28  29 S7        30.01F
FRONT RANGE AP NOT AVBL
ERIE MUNI ARPT SUNNY     65  21  18 S7G16     29.97F
BOULDER MUN AP SUNNY     63  25  23 S6        29.97F
CENTENNIAL     PTSUNNY   59  30  33 S15       30.00F
BROOMFIELD     MOSUNNY   63  25  23 SE6       30.00F
FORT COLLINS   SUNNY     63  28  27 SE5       30.00S
LONGMONT       SUNNY     68  26  20 SE3       29.99F
$$

COZ041-046-047-076>085-087-088-180000-
...PIKES PEAK/PALMER DIVIDE AND SOUTHERN FOOTHILLS...

CITY           SKY/WX    TMP DP  RH WIND       PRES   REMARKS
COLO. SPRINGS  PTSUNNY   54  33  45 S17       30.09F
A. F. ACADEMY  SUNNY     52  35  50 S18G24    30.08F
ELLICOTT       NOT AVBL
FALCON         SUNNY     52  31  45 SE15G21   30.10F
FORT CARSON    SUNNY     56  34  43 S13       30.07F
LIMON          SUNNY     56  30  37 S18G30    30.08F
MONUMENT HILL  SUNNY     50  32  50 S24G30    30.05F
TRINIDAD       SUNNY     56  33  42 VRB6      30.11F
$$

COZ042>045-048>051-090-091-180000-
...NORTHEAST COLORADO...

CITY           SKY/WX    TMP DP  RH WIND       PRES   REMARKS
GREELEY ARPT   SUNNY     64  25  22 SE9       29.99F
AKRON          MOSUNNY   60  29  30 S20       30.02F
BURLINGTON     PTSUNNY   53  37  54 S22G31    30.13F
WRAY           SUNNY     61  36  38 S21G28    30.07F
STERLING       SUNNY     68  27  21 W9        29.99S
HOLYOKE        MOSUNNY   61  34  36 S20G28    30.05F
FORT MORGAN    SUNNY     65  20  18 SE5       30.00F
$$

COZ086-089-092>099-180000-
...SOUTHEAST COLORADO...

CITY           SKY/WX    TMP DP  RH WIND       PRES   REMARKS
PUEBLO         SUNNY     61  34  36 SE16      30.05F
LA JUNTA       SUNNY     60  33  36 S14       30.09F
LAMAR          SUNNY     56  37  49 S17G24    30.13F
SPRINGFIELD      N/A     50  37  61 S13       30.18S
$$



USA.gov is the U.S. government's official web portal to all federal, state and local government web resources and services.